Location: Oberkirch
(48.5323°N, 8.0787°E)
Time: 06:26:04
(UTC+00:00)

ARIANE 6 FM1 Upper Stage - Visible Passes

Search period start: 20 January 2026 00:00
Search period end: 30 January 2026 00:00
Orbit: 522 x 610 km, 62.0° (Epoch: 19 January)

Date Brightness Start Highest point End Pass type
(mag) Time Alt. Az. Time Alt. Az. Time Alt. Az.
20 Jan 5.3 19:12:27 10° SW 19:12:51 12° SW 19:12:51 12° SW visible
21 Jan 4.5 17:35:57 10° SSE 17:37:45 14° ESE 17:37:45 14° ESE visible
21 Jan 5.0 19:12:36 10° SW 19:13:48 19° SW 19:13:48 19° SW visible
22 Jan 4.0 17:35:08 10° SSE 17:38:11 20° ESE 17:38:37 20° ESE visible
22 Jan 4.7 19:12:52 10° WSW 19:14:41 25° WSW 19:14:41 25° WSW visible
23 Jan 3.6 17:34:40 10° S 17:38:12 29° ESE 17:39:24 24° E visible
23 Jan 4.5 19:13:13 10° WSW 19:15:28 28° W 19:15:28 28° W visible
24 Jan 3.1 17:34:26 10° SSW 17:38:15 41° SE 17:40:06 25° ENE visible
24 Jan 4.5 19:13:39 10° W 19:16:08 27° WNW 19:16:08 27° WNW visible
25 Jan 2.7 17:34:20 10° SSW 17:38:21 59° SE 17:40:41 23° ENE visible
25 Jan 4.7 19:14:10 10° W 19:16:44 24° NW 19:16:44 24° NW visible
26 Jan 2.5 17:34:23 10° SW 17:38:27 84° SE 17:41:12 19° NE visible
26 Jan 4.8 19:14:45 10° W 19:17:15 21° NW 19:17:15 21° NW visible
27 Jan 2.8 17:34:32 10° SW 17:38:35 70° NW 17:41:39 17° NE visible
27 Jan 5.0 19:15:23 10° WNW 19:17:41 18° NW 19:17:41 18° NW visible
28 Jan 3.2 17:34:47 10° WSW 17:38:45 51° NW 17:42:03 14° NE visible
28 Jan 5.1 19:16:03 10° WNW 19:18:04 16° NNW 19:18:04 16° NNW visible
29 Jan 3.7 17:35:08 10° WSW 17:38:57 38° NW 17:42:22 12° NNE visible
29 Jan 5.2 19:16:44 10° NW 19:18:23 14° NNW 19:18:23 14° NNW visible
